Regional Weather Roundup
Issued by NWS

Home | Current Version | Previous Version | Text Only | Print | Product List | Glossary On
Versions: 1 2 3 4 5 6 7 8 9 10 11 12 13 14 15 16 17 18 19 20 21 22 23 24 25 26 27 28 29 30 31 32 33 34 35 36 37 38 39 40 41 42 43 44 45 46 47 48 49 50
198
ASUS44 KLIX 192210
RWRLA
LOUISIANA WEATHER ROUNDUP
NATIONAL WEATHER SERVICE NEW ORLEANS LA
500 PM CDT SAT APR 19 2014

NOTE: "FAIR" INDICATES FEW OR NO CLOUDS BELOW 12,000 FEET WITH NO
      SIGNIFICANT WEATHER AND/OR OBSTRUCTIONS TO VISIBILITY.
      SKY/WX - SKY CONDITION AND SIGNIFICANT WEATHER.
      TMP - AIR TEMPERATURE.    DP   - DEWPOINT TEMPERATURE.
      RH  - RELATIVE HUMIDITY.  PRES - PRESSURE.
      HX  - HEAT INDEX.         WCI  - WIND CHILL INDEX.

*  THESE STATIONS ARE NOT NWS OR FAA STATIONS AND ARE NOT UNDER
   NWS QUALITY CONTROL.

LAZ040-048-061>063-065-066-069-192300-
SOUTHEAST LOUISIANA

CITY           SKY/WX    TMP DP  RH WIND       PRES   REMARKS
N.O. AUDUBON     N/A     80  54  40 MISG        N/A
N.O. INTL ARPT MOSUNNY   77  53  43 NW12      30.08F
N.O. LAKEFRONT SUNNY     72  59  63 W10       30.08F
N.O. DOWNTOWN* FAIR      79  48  34 NW7       30.08F
SLIDELL        SUNNY     79  50  36 N12G17    30.06F
BATON ROUGE    SUNNY     80  51  36 NW7       30.08F
BOOTHVILLE     SUNNY     73  53  49 NW13      30.08F
BELLE CHASSE   MOSUNNY   78  50  37 VRB6      30.07F
BOGALUSA*        N/A     80  49  33 N14       30.09S
GALLIANO*      CLEAR     77  52  41 N8        30.09S
NEW ROADS*     FAIR      78  50  37 NW9       30.10F
GONZALES*      FAIR      78  52  39 NW10      30.08S
HAMMOND*       SUNNY     81  46  30 N9        30.09S
HOUMA*         SUNNY     79  46  31 N7        30.08F
PORT FOURCHON* CLEAR     72  55  56 VRB6      30.11S

$$

LAZ041-044-053-054-192300-
SOUTHWEST LOUISIANA

CITY           SKY/WX    TMP DP  RH WIND       PRES   REMARKS
LAKE CHARLES   MOSUNNY   78  53  41 VRB5      30.10F
LAFAYETTE      SUNNY     79  51  37 N8G17     30.10F
PATTERSON      SUNNY     79  54  41 NW8         N/A
SALT POINT       N/A     75  62  64 SW7       30.10S
NEW IBERIA     SUNNY     79  52  38 N6        30.10F
CHENAULT AIRPK NOT AVBL

$$

LAZ027-028-192300-
CENTRAL LOUISIANA

CITY           SKY/WX    TMP DP  RH WIND       PRES   REMARKS
FORT POLK      CLOUDY    78  53  41 VRB5      30.11F
ALEXANDRIA INT MOSUNNY   78  52  40 VRB3      30.09F
ALEXANDRIA     SUNNY     79  49  34 CALM      30.10F

$$

LAZ001-002-192300-
NORTHWEST LOUISIANA

CITY           SKY/WX    TMP DP  RH WIND       PRES   REMARKS
SHREVEPORT     PTSUNNY   79  52  38 E6        30.11F
BARKSDALE AFB  PTSUNNY   78  54  43 S3        30.12F
DTN SHREVEPORT MOSUNNY   76  50  40 CALM      30.12F

$$

LAZ014-016-192300-
NORTHEAST LOUISIANA

CITY           SKY/WX    TMP DP  RH WIND       PRES   REMARKS
MONROE         SUNNY     77  52  41 S3        30.13F
TALLULAH       SUNNY     78  51  38 N9        30.12F

$$




USA.gov is the U.S. government's official web portal to all federal, state and local government web resources and services.